Location: Auckland
(36.8670°S, 174.7670°E)
Time: 01:29:11
(UTC+13:00)

HJ-1C - Pass Details

Date: 24 January 2019
Orbit: 438 x 451 km, 97.2° (Epoch: 19 February)

Event Time Altitude Azimuth Distance (km) Brightness Sun altitude
Rises 21:00:17 0° 163° (SSE) 2,494 7.3 -4.8°
Reaches altitude 10° 21:02:23 10° 158° (SSE) 1,609 6.3 -5.1°
Maximum altitude 21:05:46 51° 81° (E) 578 3.6 -5.7°
Drops below altitude 10° 21:09:04 10° 3° (N) 1,576 5.8 -6.3°
Sets 21:11:06 0° 358° (N) 2,435 6.8 -6.7°
